Weather in Sukko

Russia / Krasnodar Krai     44°47′28″N   37°24′08″E
temp.,
°C
wind,
m/s
gust,
m/s
humid.,
%
clouds,
%
prec.,
mm/h
press.,
hPa
HPBL,
m
14 april, wed
wed1400:00+8n2288100 0.0 102029
03:00+7ne1190100 0.0 102017
06:00+8sse2292100 0.0 101999
09:00+10sse458073 0.0 1019583
12:00+11sse57710 0.0 1019706
15:00+11sse5775100 0.0 1018658
18:00+10se4681100 0.0 1018430
21:00+9se469297 0.0 1018191
15 april, thu
thu1500:00+8se47912 0.0 1017165
03:00+7se46885 0.0 1017136
06:00+7se478799 0.0 1017139
09:00+10se4677100 0.0 1017205
12:00+13sse456598 0.0 1017404
15:00+12s227294 0.0 1017307
18:00+11wsw23805 0.0 1018277
21:00+8sw118096 0.0 101811
16 april, fri
fri1600:00+8wsw2283100 0.0 101827
03:00+7nw2288100 0.0 101756
06:00+7ne018797 0.0 101841
09:00+10sw2373100 0.0 1019367
12:00+10ssw2277100 0.4 1019378
15:00+10sw237999 0.4 1020352
18:00+9sw367594 0.0 1020508
21:00+8sw248518 0.0 1021257
17 april, sat
sat1700:00+7sw23905 0.0 102281
03:00+6w23890 0.0 1022116
06:00+6wnw018922 0.0 102280
09:00+9ssw226841 0.0 1023533
12:00+11sw3259100 0.0 1023665
15:00+11w2151100 0.0 1022567
18:00+10nw235991 0.0 1022148
21:00+8ne3379100 0.0 102145
18 april, sun
sun1800:00+7ne3477100 0.0 102072
03:00+8ene3379100 0.0 101973
06:00+8ne3490100 0.9 1018120
09:00+9ene3388100 0.9 1017120
12:00+14s1273100 0.2 1017548
15:00+13n228375 0.6 1017265
18:00+13nne2384100 0.1 1017302
21:00+11ene2293100 0.1 101858